User: anonymous   Login
Location: Unspecified
(0.0000°N, 0.0000°E)
Time: 20:26:06
(UTC+02:00)
Language:

ARIANE 5 R/B - Orbit

View from above orbital plane
View from above orbital plane
View from above satellite
View from above satellite

Ground track
Ground track

The orbit data is extracted from the following two-line orbital elements,

1 27510U 02040C   16236.76415738 -.00000076  00000-0 -34837-3 0  9993
2 27510   5.4711 327.4709 7156939 104.7381  11.7055  2.27198188116149
Epoch (UTC): 23 August 2016 18:20:23
Eccentricity: 0.7156939
inclination: 5.4711°
perigee height: 571 km
apogee height: 35556 km
right ascension of ascending node: 327.4709°
argument of perigee: 104.7381°
revolutions per day: 2.27198188
mean anomaly at epoch: 11.7055°
orbit number at epoch: 11614

The dashed part of the orbit path shows where the satellite is in the earth's shadow,  

DLR